Time,TemperatureF,DewpointF,PressureIn,WindDirection,WindDirectionDegrees,WindSpeedMPH,WindSpeedGustMPH,Humidity,HourlyPrecipIn,Conditions,Clouds,dailyrainin,SoftwareType,DateUTC
2013-02-06 00:13:00,27.9,23.0,29.98,West,265,0.0,-999.0,80,-99.99,,,0.00,weatherlink.com 1.10,2013-02-06 07:13:00,
2013-02-06 00:28:00,28.1,23.0,29.97,West,265,0.0,-999.0,81,-99.99,,,0.00,weatherlink.com 1.10,2013-02-06 07:28:00,
2013-02-06 00:43:00,27.5,22.0,29.98,West,265,0.0,-999.0,81,-99.99,,,0.00,weatherlink.com 1.10,2013-02-06 07:43:00,
2013-02-06 00:58:00,27.6,23.0,29.97,West,265,0.0,-999.0,82,-99.99,,,0.00,weatherlink.com 1.10,2013-02-06 07:58:00,
2013-02-06 01:13:00,27.6,23.0,29.96,West,265,0.0,-999.0,83,-99.99,,,0.00,weatherlink.com 1.10,2013-02-06 08:13:00,
2013-02-06 01:28:00,27.3,23.0,29.95,West,265,0.0,-999.0,82,-99.99,,,0.00,weatherlink.com 1.10,2013-02-06 08:28:00,
2013-02-06 01:43:00,27.9,23.0,29.95,West,265,0.0,-999.0,83,-99.99,,,0.00,weatherlink.com 1.10,2013-02-06 08:43:00,
2013-02-06 01:58:00,28.2,24.0,29.95,West,265,0.0,-999.0,83,-99.99,,,0.00,weatherlink.com 1.10,2013-02-06 08:58:00,
2013-02-06 02:28:00,-999.0,-99.9,29.93,North,-999,-999.0,-999.0,-999,-99.99,,,0.00,weatherlink.com 1.10,2013-02-06 09:28:00,
2013-02-06 02:43:00,-999.0,-99.9,29.82,North,-999,-999.0,-999.0,-999,-99.99,,,0.00,weatherlink.com 1.10,2013-02-06 09:43:00,
2013-02-06 02:58:00,-999.0,-99.9,29.81,North,-999,-999.0,-999.0,-999,-99.99,,,0.00,weatherlink.com 1.10,2013-02-06 09:58:00,
2013-02-06 03:13:00,-999.0,-99.9,29.80,North,-999,-999.0,-999.0,-999,-99.99,,,0.00,weatherlink.com 1.10,2013-02-06 10:13:00,
2013-02-06 03:28:00,-999.0,-99.9,29.80,North,-999,-999.0,-999.0,-999,-99.99,,,0.00,weatherlink.com 1.10,2013-02-06 10:28:00,
2013-02-06 03:44:00,26.4,22.0,29.80,West,265,0.0,-999.0,83,-99.99,,,0.00,weatherlink.com 1.10,2013-02-06 10:44:00,
2013-02-06 03:58:00,26.1,22.0,29.94,West,265,0.0,-999.0,83,-99.99,,,0.00,weatherlink.com 1.10,2013-02-06 10:58:00,
2013-02-06 04:13:00,26.1,22.0,29.94,West,265,0.0,-999.0,84,-99.99,,,0.00,weatherlink.com 1.10,2013-02-06 11:13:00,
2013-02-06 04:28:00,26.4,22.0,29.95,West,265,0.0,-999.0,84,-99.99,,,0.00,weatherlink.com 1.10,2013-02-06 11:28:00,
2013-02-06 04:44:00,26.3,22.0,29.95,West,265,0.0,-999.0,84,-99.99,,,0.00,weatherlink.com 1.10,2013-02-06 11:44:00,
2013-02-06 04:59:00,26.7,23.0,29.95,West,265,0.0,-999.0,84,-99.99,,,0.00,weatherlink.com 1.10,2013-02-06 11:59:00,
2013-02-06 05:14:00,26.7,23.0,29.95,West,265,0.0,-999.0,84,-99.99,,,0.00,weatherlink.com 1.10,2013-02-06 12:14:00,
2013-02-06 05:29:00,26.9,23.0,29.97,West,265,0.0,-999.0,84,-99.99,,,0.00,weatherlink.com 1.10,2013-02-06 12:29:00,
2013-02-06 05:44:00,27.0,23.0,29.98,West,265,0.0,-999.0,84,-99.99,,,0.00,weatherlink.com 1.10,2013-02-06 12:44:00,
2013-02-06 05:59:00,27.8,24.0,29.97,West,265,1.0,-999.0,85,-99.99,,,0.00,weatherlink.com 1.10,2013-02-06 12:59:00,
2013-02-06 06:14:00,28.7,25.0,29.94,West,265,0.0,-999.0,84,-99.99,,,0.00,weatherlink.com 1.10,2013-02-06 13:14:00,
2013-02-06 06:29:00,29.4,25.0,29.95,West,265,2.0,-999.0,83,-99.99,,,0.00,weatherlink.com 1.10,2013-02-06 13:29:00,
2013-02-06 06:44:00,29.0,24.0,29.93,NNW,337,3.0,-999.0,82,-99.99,,,0.00,weatherlink.com 1.10,2013-02-06 13:44:00,
2013-02-06 06:59:00,29.1,24.0,29.95,NNW,337,0.0,-999.0,82,-99.99,,,0.00,weatherlink.com 1.10,2013-02-06 13:59:00,
2013-02-06 07:14:00,29.4,24.0,29.95,NNW,337,0.0,-999.0,81,-99.99,,,0.00,weatherlink.com 1.10,2013-02-06 14:14:00,
2013-02-06 07:29:00,29.1,24.0,30.00,NNW,337,0.0,-999.0,81,-99.99,,,0.00,weatherlink.com 1.10,2013-02-06 14:29:00,
2013-02-06 07:44:00,29.4,25.0,30.02,NNW,337,0.0,-999.0,82,-99.99,,,0.00,weatherlink.com 1.10,2013-02-06 14:44:00,
2013-02-06 07:59:00,30.0,25.0,30.01,NNW,337,0.0,-999.0,82,-99.99,,,0.00,weatherlink.com 1.10,2013-02-06 14:59:00,
2013-02-06 08:14:00,31.0,26.0,30.01,NNW,337,0.0,-999.0,82,-99.99,,,0.00,weatherlink.com 1.10,2013-02-06 15:14:00,
2013-02-06 08:29:00,32.1,27.0,30.00,NNW,337,0.0,-999.0,80,-99.99,,,0.00,weatherlink.com 1.10,2013-02-06 15:29:00,
2013-02-06 08:44:00,33.5,28.0,29.99,NNW,337,0.0,-999.0,80,-99.99,,,0.00,weatherlink.com 1.10,2013-02-06 15:44:00,
2013-02-06 08:59:00,34.3,28.0,29.97,NNW,337,0.0,-999.0,77,-99.99,,,0.00,weatherlink.com 1.10,2013-02-06 15:59:00,
2013-02-06 09:14:00,35.0,28.0,29.98,NNW,337,0.0,-999.0,75,-99.99,,,0.00,weatherlink.com 1.10,2013-02-06 16:14:00,
2013-02-06 09:44:00,35.9,28.0,29.99,NNW,336,0.0,-999.0,72,-99.99,,,0.00,weatherlink.com 1.10,2013-02-06 16:44:00,
2013-02-06 09:59:00,36.0,27.0,30.00,NNW,337,0.0,-999.0,71,-99.99,,,0.00,weatherlink.com 1.10,2013-02-06 16:59:00,
2013-02-06 10:14:00,36.6,28.0,30.00,NNW,337,0.0,-999.0,70,-99.99,,,0.00,weatherlink.com 1.10,2013-02-06 17:14:00,
2013-02-06 10:29:00,38.3,28.0,29.99,NNW,337,0.0,-999.0,67,-99.99,,,0.00,weatherlink.com 1.10,2013-02-06 17:29:00,
2013-02-06 10:44:00,39.9,29.0,29.98,NNW,337,0.0,-999.0,65,-99.99,,,0.00,weatherlink.com 1.10,2013-02-06 17:44:00,
2013-02-06 10:59:00,41.2,28.0,29.98,NNW,337,0.0,-999.0,59,-99.99,,,0.00,weatherlink.com 1.10,2013-02-06 17:59:00,
2013-02-06 11:14:00,40.8,27.0,29.97,NNW,337,0.0,-999.0,58,-99.99,,,0.00,weatherlink.com 1.10,2013-02-06 18:14:00,
2013-02-06 11:29:00,40.5,27.0,29.99,NNW,337,0.0,-999.0,58,-99.99,,,0.00,weatherlink.com 1.10,2013-02-06 18:29:00,
2013-02-06 11:44:00,40.6,27.0,29.99,NNW,337,0.0,-999.0,58,-99.99,,,0.00,weatherlink.com 1.10,2013-02-06 18:44:00,
2013-02-06 11:59:00,41.1,27.0,29.99,NNW,337,0.0,-999.0,58,-99.99,,,0.00,weatherlink.com 1.10,2013-02-06 18:59:00,
2013-02-06 12:14:00,41.9,27.0,29.99,West,278,0.0,-999.0,57,-99.99,,,0.00,weatherlink.com 1.10,2013-02-06 19:14:00,
2013-02-06 12:29:00,43.5,27.0,29.98,NW,321,0.0,-999.0,52,-99.99,,,0.00,weatherlink.com 1.10,2013-02-06 19:29:00,
2013-02-06 12:44:00,44.8,27.0,29.97,WNW,302,1.0,-999.0,49,-99.99,,,0.00,weatherlink.com 1.10,2013-02-06 19:44:00,
2013-02-06 12:59:00,46.0,27.0,29.96,WSW,254,3.0,-999.0,48,-99.99,,,0.00,weatherlink.com 1.10,2013-02-06 19:59:00,
2013-02-06 13:14:00,46.4,26.0,29.95,WNW,285,0.0,-999.0,45,-99.99,,,0.00,weatherlink.com 1.10,2013-02-06 20:14:00,
2013-02-06 13:29:00,47.4,27.0,29.94,NNW,345,2.0,-999.0,45,-99.99,,,0.00,weatherlink.com 1.10,2013-02-06 20:29:00,
2013-02-06 13:44:00,47.6,26.0,29.93,NW,311,1.0,-999.0,44,-99.99,,,0.00,weatherlink.com 1.10,2013-02-06 20:44:00,
2013-02-06 13:59:00,47.4,27.0,29.93,NNW,339,3.0,-999.0,45,-99.99,,,0.00,weatherlink.com 1.10,2013-02-06 20:59:00,
2013-02-06 14:14:00,47.6,27.0,29.93,West,281,2.0,-999.0,45,-99.99,,,0.00,weatherlink.com 1.10,2013-02-06 21:14:00,
2013-02-06 14:30:00,47.6,26.0,29.85,NW,321,3.0,-999.0,44,-99.99,,,0.00,weatherlink.com 1.10,2013-02-06 21:30:00,
2013-02-06 14:45:00,47.0,25.0,29.85,NW,320,2.0,-999.0,42,-99.99,,,0.00,weatherlink.com 1.10,2013-02-06 21:45:00,
2013-02-06 15:00:00,47.1,25.0,29.86,NW,320,0.0,-999.0,43,-99.99,,,0.00,weatherlink.com 1.10,2013-02-06 22:00:00,
2013-02-06 15:15:00,47.3,26.0,29.87,NW,320,0.0,-999.0,43,-99.99,,,0.00,weatherlink.com 1.10,2013-02-06 22:15:00,
2013-02-06 15:30:00,47.6,26.0,29.97,ENE,59,1.0,-999.0,44,-99.99,,,0.00,weatherlink.com 1.10,2013-02-06 22:30:00,
2013-02-06 15:45:00,47.6,26.0,29.96,ENE,59,0.0,-999.0,43,-99.99,,,0.00,weatherlink.com 1.10,2013-02-06 22:45:00,
2013-02-06 16:00:00,47.7,27.0,29.96,ENE,59,0.0,-999.0,44,-99.99,,,0.00,weatherlink.com 1.10,2013-02-06 23:00:00,
2013-02-06 16:15:00,-999.0,-99.9,29.96,North,-999,-999.0,-999.0,-999,-99.99,,,0.00,weatherlink.com 1.10,2013-02-06 23:15:00,
2013-02-06 16:30:00,47.4,27.0,30.03,SSW,202,0.0,-999.0,46,-99.99,,,0.00,weatherlink.com 1.10,2013-02-06 23:30:00,
2013-02-06 16:45:00,47.3,27.0,29.96,SSW,202,1.0,-999.0,46,-99.99,,,0.00,weatherlink.com 1.10,2013-02-06 23:45:00,
2013-02-06 17:00:00,47.1,28.0,29.98,SSW,202,0.0,-999.0,47,-99.99,,,0.00,weatherlink.com 1.10,2013-02-07 00:00:00,
2013-02-06 17:15:00,46.8,27.0,29.98,SSW,202,0.0,-999.0,47,-99.99,,,0.00,weatherlink.com 1.10,2013-02-07 00:15:00,
2013-02-06 17:30:00,46.2,28.0,29.98,West,262,3.0,-999.0,49,-99.99,,,0.00,weatherlink.com 1.10,2013-02-07 00:30:00,
2013-02-06 17:45:00,44.8,27.0,29.99,West,262,0.0,-999.0,51,-99.99,,,0.00,weatherlink.com 1.10,2013-02-07 00:45:00,
2013-02-06 18:00:00,43.8,27.0,30.01,West,262,0.0,-999.0,52,-99.99,,,0.00,weatherlink.com 1.10,2013-02-07 01:00:00,
2013-02-06 18:15:00,42.1,27.0,30.01,West,262,0.0,-999.0,55,-99.99,,,0.00,weatherlink.com 1.10,2013-02-07 01:15:00,
2013-02-06 18:30:00,39.9,27.0,30.02,West,262,0.0,-999.0,60,-99.99,,,0.00,weatherlink.com 1.10,2013-02-07 01:30:00,
2013-02-06 18:45:00,38.8,27.0,30.03,West,262,0.0,-999.0,62,-99.99,,,0.00,weatherlink.com 1.10,2013-02-07 01:45:00,
2013-02-06 19:00:00,37.9,27.0,30.04,West,262,0.0,-999.0,64,-99.99,,,0.00,weatherlink.com 1.10,2013-02-07 02:00:00,
2013-02-06 19:15:00,36.8,27.0,30.05,West,262,0.0,-999.0,67,-99.99,,,0.00,weatherlink.com 1.10,2013-02-07 02:15:00,
2013-02-06 19:30:00,36.5,27.0,30.05,West,262,0.0,-999.0,68,-99.99,,,0.00,weatherlink.com 1.10,2013-02-07 02:30:00,
2013-02-06 19:45:00,36.5,27.0,30.05,West,262,0.0,-999.0,68,-99.99,,,0.00,weatherlink.com 1.10,2013-02-07 02:45:00,
2013-02-06 20:00:00,35.6,26.0,30.06,West,262,0.0,-999.0,69,-99.99,,,0.00,weatherlink.com 1.10,2013-02-07 03:00:00,
2013-02-06 20:15:00,35.5,27.0,30.07,West,262,0.0,-999.0,70,-99.99,,,0.00,weatherlink.com 1.10,2013-02-07 03:15:00,
2013-02-06 20:30:00,35.5,26.0,30.06,West,262,0.0,-999.0,69,-99.99,,,0.00,weatherlink.com 1.10,2013-02-07 03:30:00,
2013-02-06 20:45:00,34.4,26.0,30.06,West,262,1.0,-999.0,71,-99.99,,,0.00,weatherlink.com 1.10,2013-02-07 03:45:00,
2013-02-06 21:00:00,33.4,25.0,30.07,West,262,0.0,-999.0,72,-99.99,,,0.00,weatherlink.com 1.10,2013-02-07 04:00:00,
2013-02-06 21:15:00,32.2,25.0,30.09,West,262,0.0,-999.0,74,-99.99,,,0.00,weatherlink.com 1.10,2013-02-07 04:15:00,
2013-02-06 21:30:00,31.6,25.0,30.09,West,262,0.0,-999.0,76,-99.99,,,0.00,weatherlink.com 1.10,2013-02-07 04:30:00,
2013-02-06 21:45:00,31.6,25.0,30.09,West,262,0.0,-999.0,77,-99.99,,,0.00,weatherlink.com 1.10,2013-02-07 04:45:00,
2013-02-06 22:00:00,30.6,24.0,30.10,West,262,0.0,-999.0,77,-99.99,,,0.00,weatherlink.com 1.10,2013-02-07 05:00:00,
2013-02-06 22:15:00,30.0,24.0,30.11,West,262,0.0,-999.0,78,-99.99,,,0.00,weatherlink.com 1.10,2013-02-07 05:15:00,
2013-02-06 22:30:00,29.5,23.0,30.11,West,262,0.0,-999.0,78,-99.99,,,0.00,weatherlink.com 1.10,2013-02-07 05:30:00,
2013-02-06 22:45:00,29.4,24.0,30.11,West,262,0.0,-999.0,79,-99.99,,,0.00,weatherlink.com 1.10,2013-02-07 05:45:00,
2013-02-06 23:00:00,29.5,24.0,30.11,West,262,0.0,-999.0,80,-99.99,,,0.00,weatherlink.com 1.10,2013-02-07 06:00:00,
2013-02-06 23:15:00,28.8,23.0,30.11,West,262,0.0,-999.0,79,-99.99,,,0.00,weatherlink.com 1.10,2013-02-07 06:15:00,
2013-02-06 23:30:00,28.5,23.0,30.11,West,262,0.0,-999.0,81,-99.99,,,0.00,weatherlink.com 1.10,2013-02-07 06:30:00,
2013-02-06 23:45:00,28.8,24.0,30.11,West,262,0.0,-999.0,81,-99.99,,,0.00,weatherlink.com 1.10,2013-02-07 06:45:00,